Track YAOGAN-30 E now! 10-day predictions YAOGAN-30 E is classified as:
1 43029U 17075B 23090.90092981 .00004496 00000-0 43885-3 0 9994 2 43029 34.9966 161.5712 0004407 136.3010 223.8042 14.91885655291475